Regional Weather Roundup
Issued by NWS Upton, NY

Home | Current Version | Previous Version | Text Only | Print | Product List | Glossary On
Versions: 1 2 3 4 5 6 7 8 9 10 11 12 13 14 15 16 17 18 19 20 21 22 23 24 25 26 27
000
ASUS41 KOKX 261509
RWROKX

REGIONAL WEATHER ROUNDUP
NATIONAL WEATHER SERVICE NEW YORK NY
1100 AM EDT FRI MAY 26 2017

NOTE: "FAIR" INDICATES FEW OR NO CLOUDS BELOW 12,000 FEET WITH NO
SIGNIFICANT WEATHER AND/OR OBSTRUCTIONS TO VISIBILITY.

NYZ071-072-176-178-NJZ106-104-261600-
NEW YORK CITY METRO AREA

CITY           SKY/WX    TMP DP  RH WIND       PRES   REMARKS
Central Park   CLOUDY    64  59  83 MISG      29.61F
Wall St Helipt CLOUDY    65  58  78 W10G18    29.60S
Bronx Bot Gard   N/A     66  55  68 W8        29.59F
LaGuardia APRT PTSUNNY   67  57  70 W8        29.58S
Kennedy INTL   PTSUNNY   66  61  84 W12       29.60S
Breezy Point     N/A     63 N/A N/A W9          N/A
Newark/Liberty PTSUNNY   69  59  70 W13G24    29.58F
Teterboro      CLOUDY    66  59  78 NW7       29.57S
$$

NYZ177-179-078>081-261600-
LONG ISLAND NEW YORK

CITY           SKY/WX    TMP DP  RH WIND       PRES   REMARKS
Jones Beach      N/A     59 N/A N/A W12         N/A
Matinecock PT    N/A    102 N/A N/A S6          N/A
Farmingdale    PTSUNNY   65  57  75 W13       29.58S
MacArthur/ISP  CLOUDY    63  56  78 W8        29.57S
Shirley        CLOUDY    61  55  81 NW9       29.58S
Mt Sinai Harb    N/A    N/A N/A N/A W5          N/A
Westhampton    CLOUDY    60  51  72 W10       29.59R
East Hampton   CLOUDY    55  51  86 NW6       29.57R
Montauk          N/A     56  51  84 W8        29.57R
$$

NYZ052-065-067-261600-
HUDSON VALLEY

CITY           SKY/WX    TMP DP  RH WIND       PRES   REMARKS
White Plains   PTSUNNY   63  57  81 NW12      29.57S
Larchmont Harb   N/A     61 N/A N/A W12         N/A
Croton O-T Hud   N/A     61 N/A N/A MISG        N/A
Newburgh       CLOUDY    61  59  94 W12       29.59F
Montgomery     PTSUNNY   66  60  81 W8        29.57S
Poughkeepsie   CLOUDY    58  54  86 VRB5      29.57R
Albany         LGT RAIN  58  53  84 NW8       29.57S
$$

NJZ001-105-106-008-010-013-015-019>022-104-261600-
NEW JERSEY

CITY           SKY/WX    TMP DP  RH WIND       PRES   REMARKS
Newark/Liberty PTSUNNY   69  59  70 W13G24    29.58F
Teterboro      CLOUDY    66  59  78 NW7       29.57S
Caldwell       CLOUDY    70  57  63 NW9       29.59S
Somerville     CLOUDY    69  59  70 W8        29.59R
Linden         PTSUNNY   69  58  68 NW16G24   29.60R
Perth Amboy      N/A     64 N/A N/A W15G22      N/A
Sussex         MOSUNNY   69  58  67 W10       29.60S
Andover          N/A     67  57  70 VRB6      29.61R
Trenton        CLOUDY    68  58  70 W13G20    29.63S
Millville      CLOUDY    70  60  70 W16       29.68R
Atlantic City  PTSUNNY   71  57  61 W16       29.65S
Wrightstown    MOSUNNY   70  59  68 W15G22    29.61S
Toms River     PTSUNNY   70  59  68 W17       29.63S
Belmar         PTSUNNY   68  58  70 W16G23    29.62R
$$

PAZ047>061-062-071-261600-
EASTERN PENNSYLVANIA

CITY           SKY/WX    TMP DP  RH WIND       PRES   REMARKS
Philadelphia   MOSUNNY   70  55  59 W20G26    29.66S
Allentown      MOSUNNY   69  55  60 W17G29    29.63S
Scranton       CLOUDY    64  56  75 W9        29.65R
$$

CTZ002-004>006-009-010-012-RIZ004-006-007-MAZ004-011-015-261600-
SOUTHERN NEW ENGLAND
 IN CT

CITY           SKY/WX    TMP DP  RH WIND       PRES   REMARKS
Bradley INTL   CLOUDY    57  53  86 N8        29.55S
Hartford       CLOUDY    59  53  80 N9        29.55R
Danbury        CLOUDY    58  55  90 NW6       29.59R
Wtrbury/Oxford CLOUDY    55  50  82 NW7       29.58R
Bridgeport     CLOUDY    61  54  77 SW8       29.57R
Meriden        CLOUDY    58  53  84 W5        29.56R
New Haven      CLOUDY    58  52  80 W5        29.57R
Chester        PTSUNNY   57  52  82 NW7       29.56R
Groton         CLOUDY    58  51  78 NW9       29.54R
Wilimantic     CLOUDY    57  51  80 N10       29.55R

 IN RI

CITY           SKY/WX    TMP DP  RH WIND       PRES   REMARKS
Providence     LGT RAIN  52  51  97 NW9       29.53R
Block Island   CLOUDY    54  51  90 W8        29.55R
Westerly       CLOUDY    56  51  84 VRB6      29.54R
 IN MA

CITY           SKY/WX    TMP DP  RH WIND       PRES   REMARKS
Boston         LGT RAIN  51  50  96 NW12      29.51R FOG
Worcester      LGT RAIN  50  47  89 NW7       29.53R
Westfield      NOT AVBL
Provincetown   CLOUDY    52  51  97 NW10      29.46R
Nantucket      CLOUDY    55  54  96 W18G26    29.47R FOG
$$

ANZ330-335-338-340-345-350-353-355-261600-
COASTAL MARINE OBSERVATIONS


STATION/POSITION TIME  SKY/WX   TEMP    WIND        PRES    VSBY  WAVE
                                AIR SEA DIR/SP/G                  HT/PER
                 (UTC)          (F)     (DEG/KT/KT) (MB)    (MI)  (FT/S)
NY HARB ENTRANCE 1350            58 56  260/  6/  6 1002.2          5/ 8
20 S FIRE ISLAND 1450            56 55  260/  8/ 10 1001.8          7/ 8
GREAT SOUTH BAY  1430            59 62  290/ 10/ 12   N/A
23 SSW MONTAUK P 1350            53 53              1000.9          7/10
15 E BARNEGAT LI 1430               59                N/A           7/10
HUDSON CANYON    1350            57 54  250/ 17/ 19 1002.3          7/ 8
KINGS POINT      1442            61 58  270/  5/  6 1001.5
EXECUTION ROCKS  1445            64                   N/A
CENTRAL LI SOUND NOT AVBL
EASTERN LI SOUND NOT AVBL
ROBBINS REEF     1442            64     280/ 13/ 15 1002.4
$$


>>>>>>>>>>>>>>>>>>>>>>>>>>>> KEY <<<<<<<<<<<<<<<<<<<<<<<<<<<
>                                                          <
>     SKY/WX - Sky Condition/Present Weather               <
>     TMP    - Temperature in Fahrenheit                   <
>     DP     - Dew Point in Fahrenheit                     <
>     RH     - Relative Humidity in Percent                <
>     WIND   - Direction (from) and Speed in MPH           <
>     PRES   - Mean Sea Level Pressure (inches of Hg)      <
>     WCI    - Wind Chill Index                            <
>     VSB    - VISIBILITY IN MILES                         <
>     HX     - HEAT INDEX                                  <
>     TC     - TEMPERATURE IN CELSIUS                      <
>     VRB    - VARIABLE WIND DIRECTION                     <
>                                                          <
>>>>>>>>>>>>>>>>>>>>>>>>>>>> KEY <<<<<<<<<<<<<<<<<<<<<<<<<<<




USA.gov is the U.S. government's official web portal to all federal, state and local government web resources and services.